Hourly Weather Abakumy

Today, 20 October, Tuesday

Time Temperature Precipitation Wind Pressure Humidity
00:00 +3°C° 0 mm 3 mps 755 mmHg 79%
01:00 +3°C° 0 mm 3 mps 755 mmHg 81%
02:00 +2°C° 0 mm 3 mps 755 mmHg 82%
03:00 +2°C° 0 mm 3 mps 755 mmHg 84%
04:00 +1°C° 0 mm 4 mps 755 mmHg 87%
05:00 +1°C° 0 mm 4 mps 755 mmHg 89%
06:00 +1°C° 0 mm 4 mps 755 mmHg 87%
07:00 +3°C° 0 mm 4 mps 756 mmHg 85%
08:00 +2°C° 0 mm 5 mps 756 mmHg 83%
09:00 +3°C° 0 mm 5 mps 756 mmHg 77%
10:00 +6°C° 0 mm 5 mps 756 mmHg 72%
11:00 +7°C° 0 mm 6 mps 756 mmHg 66%
12:00 +8°C° 0 mm 6 mps 757 mmHg 64%
13:00 +8°C° 0 mm 6 mps 757 mmHg 62%
14:00 +8°C° 0 mm 6 mps 757 mmHg 59%
15:00 +7°C° 0 mm 5 mps 757 mmHg 64%
16:00 +6°C° 0 mm 4 mps 757 mmHg 69%
17:00 +5°C° 0 mm 3 mps 757 mmHg 73%
18:00 +5°C° 0 mm 3 mps 758 mmHg 76%
19:00 +5°C° 0 mm 2 mps 758 mmHg 79%
20:00 +5°C° 0 mm 2 mps 758 mmHg 82%
21:00 +5°C° 0 mm 2 mps 758 mmHg 83%
22:00 +5°C° 0 mm 2 mps 758 mmHg 84%
23:00 +6°C° 0 mm 1 mps 759 mmHg 85%

Tomorrow, 21 October, Wednesday

Time Temperature Precipitation Wind Pressure Humidity
00:00 +5°C° 0 mm 1 mps 759 mmHg 86%
01:00 +5°C° 0 mm 1 mps 759 mmHg 87%
02:00 +5°C° 0 mm 1 mps 759 mmHg 87%
03:00 +4°C° 0 mm 2 mps 758 mmHg 88%
04:00 +4°C° 0 mm 2 mps 758 mmHg 89%
05:00 +4°C° 0 mm 2 mps 758 mmHg 89%
06:00 +4°C° 0 mm 3 mps 757 mmHg 87%
07:00 +5°C° 0 mm 3 mps 757 mmHg 84%
08:00 +5°C° 0 mm 4 mps 757 mmHg 81%
09:00 +6°C° 0 mm 4 mps 756 mmHg 77%
10:00 +7°C° 0 mm 4 mps 756 mmHg 73%
11:00 +8°C° 0 mm 5 mps 755 mmHg 69%
12:00 +8°C° 0.1 mm 4 mps 755 mmHg 71%
13:00 +8°C° 0.1 mm 4 mps 754 mmHg 72%
14:00 +8°C° 0.1 mm 4 mps 754 mmHg 74%
15:00 +9°C° 0.3 mm 3 mps 753 mmHg 78%
16:00 +8°C° 0.3 mm 3 mps 753 mmHg 82%
17:00 +8°C° 0.3 mm 2 mps 753 mmHg 87%
18:00 +8°C° 0 mm 2 mps 753 mmHg 86%
19:00 +8°C° 0 mm 2 mps 753 mmHg 85%
20:00 +8°C° 0 mm 2 mps 753 mmHg 84%
21:00 +8°C° 0 mm 2 mps 753 mmHg 84%
22:00 +8°C° 0 mm 2 mps 753 mmHg 84%
23:00 +8°C° 0 mm 2 mps 753 mmHg 83%

Day after tomorrow, 22 October, Thursday

Time Temperature Precipitation Wind Pressure Humidity
00:00 +8°C° 0 mm 2 mps 753 mmHg 84%
01:00 +8°C° 0 mm 2 mps 753 mmHg 84%
02:00 +8°C° 0 mm 2 mps 753 mmHg 84%
03:00 +8°C° 0 mm 2 mps 753 mmHg 84%
04:00 +8°C° 0 mm 2 mps 752 mmHg 84%
05:00 +8°C° 0 mm 2 mps 752 mmHg 84%
06:00 +8°C° 0 mm 2 mps 752 mmHg 83%
07:00 +9°C° 0 mm 3 mps 752 mmHg 82%
08:00 +9°C° 0 mm 3 mps 752 mmHg 81%
09:00 +10°C° 0 mm 3 mps 752 mmHg 76%
10:00 +11°C° 0 mm 4 mps 752 mmHg 72%
11:00 +12°C° 0 mm 5 mps 752 mmHg 67%
12:00 +13°C° 0 mm 5 mps 751 mmHg 65%
13:00 +14°C° 0 mm 5 mps 751 mmHg 63%
14:00 +15°C° 0 mm 5 mps 751 mmHg 62%
15:00 +14°C° 0 mm 5 mps 751 mmHg 67%
16:00 +12°C° 0 mm 4 mps 751 mmHg 73%
17:00 +11°C° 0 mm 3 mps 751 mmHg 79%
18:00 +11°C° 0 mm 3 mps 751 mmHg 83%
19:00 +10°C° 0 mm 3 mps 752 mmHg 86%
20:00 +10°C° 0 mm 3 mps 752 mmHg 90%
21:00 +10°C° 0 mm 2 mps 752 mmHg 91%
22:00 +9°C° 0 mm 2 mps 752 mmHg 92%
23:00 +9°C° 0 mm 2 mps 753 mmHg 93%

23 October, Friday

Time Temperature Precipitation Wind Pressure Humidity
00:00 +9°C° 0 mm 2 mps 753 mmHg 93%
01:00 +9°C° 0 mm 2 mps 753 mmHg 93%
02:00 +9°C° 0 mm 2 mps 753 mmHg 94%
03:00 +9°C° 0 mm 2 mps 753 mmHg 94%
04:00 +9°C° 0 mm 2 mps 752 mmHg 94%
05:00 +9°C° 0 mm 3 mps 752 mmHg 94%
06:00 +9°C° 0 mm 3 mps 752 mmHg 93%
07:00 +9°C° 0 mm 3 mps 752 mmHg 91%
08:00 +10°C° 0 mm 3 mps 752 mmHg 89%
09:00 +11°C° 0 mm 3 mps 751 mmHg 84%
10:00 +12°C° 0 mm 3 mps 751 mmHg 79%
11:00 +13°C° 0 mm 4 mps 751 mmHg 74%
12:00 +14°C° 0 mm 3 mps 751 mmHg 73%
13:00 +14°C° 0 mm 3 mps 750 mmHg 73%
14:00 +16°C° 0 mm 3 mps 750 mmHg 72%
15:00 +14°C° 0 mm 3 mps 749 mmHg 76%
16:00 +13°C° 0 mm 3 mps 749 mmHg 80%
17:00 +14°C° 0 mm 2 mps 748 mmHg 83%
18:00 +12°C° 0 mm 3 mps 748 mmHg 84%
19:00 +12°C° 0 mm 3 mps 748 mmHg 84%
20:00 +11°C° 0 mm 3 mps 748 mmHg 84%
21:00 +11°C° 0 mm 3 mps 748 mmHg 84%
22:00 +12°C° 0 mm 2 mps 748 mmHg 83%
23:00 +10°C° 0 mm 2 mps 747 mmHg 82%

24 October, Saturday

Time Temperature Precipitation Wind Pressure Humidity
00:00 +10°C° 0 mm 2 mps 747 mmHg 84%
01:00 +10°C° 0 mm 2 mps 747 mmHg 85%
02:00 +10°C° 0 mm 2 mps 747 mmHg 86%
03:00 +9°C° 0 mm 2 mps 748 mmHg 88%
04:00 +10°C° 0 mm 1 mps 748 mmHg 90%
05:00 +10°C° 0 mm 1 mps 748 mmHg 91%
06:00 +10°C° 0 mm 1 mps 748 mmHg 91%
07:00 +11°C° 0 mm 1 mps 748 mmHg 90%
08:00 +11°C° 0 mm 1 mps 748 mmHg 90%
09:00 +12°C° 0 mm 1 mps 748 mmHg 88%
10:00 +11°C° 0 mm 0 mps 748 mmHg 86%
11:00 +12°C° 0 mm 0 mps 749 mmHg 84%
12:00 +11°C° 0.8 mm 0 mps 748 mmHg 88%
13:00 +12°C° 0.8 mm 1 mps 748 mmHg 92%
14:00 +12°C° 0.8 mm 1 mps 748 mmHg 96%
15:00 +12°C° 1.3 mm 1 mps 748 mmHg 96%
16:00 +11°C° 1.3 mm 1 mps 748 mmHg 97%
17:00 +11°C° 1.3 mm 1 mps 748 mmHg 98%
18:00 +11°C° 0.4 mm 1 mps 748 mmHg 97%
19:00 +10°C° 0.4 mm 2 mps 748 mmHg 97%
20:00 +10°C° 0.4 mm 2 mps 748 mmHg 97%
21:00 +10°C° 0.1 mm 2 mps 748 mmHg 97%
22:00 +10°C° 0.1 mm 2 mps 748 mmHg 96%
23:00 +12°C° 0.1 mm 2 mps 748 mmHg 96%

25 October, Sunday

Time Temperature Precipitation Wind Pressure Humidity
00:00 +10°C° 0.1 mm 3 mps 748 mmHg 95%
01:00 +10°C° 0.1 mm 3 mps 748 mmHg 95%
02:00 +10°C° 0.1 mm 3 mps 747 mmHg 95%
03:00 +10°C° 0 mm 3 mps 748 mmHg 95%
04:00 +10°C° 0 mm 3 mps 748 mmHg 95%
05:00 +10°C° 0 mm 3 mps 748 mmHg 95%
06:00 +10°C° 0 mm 3 mps 748 mmHg 94%
07:00 +10°C° 0 mm 3 mps 748 mmHg 94%
08:00 +10°C° 0 mm 4 mps 748 mmHg 93%
09:00 +10°C° 0 mm 4 mps 749 mmHg 90%
10:00 +10°C° 0 mm 4 mps 749 mmHg 87%
11:00 +10°C° 0 mm 4 mps 749 mmHg 85%
12:00 +10°C° 0 mm 3 mps 749 mmHg 83%
13:00 +10°C° 0 mm 3 mps 750 mmHg 81%
14:00 +11°C° 0 mm 3 mps 750 mmHg 79%
15:00 +10°C° 0 mm 2 mps 750 mmHg 80%
16:00 +10°C° 0 mm 2 mps 750 mmHg 80%
17:00 +11°C° 0 mm 1 mps 750 mmHg 81%
18:00 +11°C° 0 mm 1 mps 751 mmHg 81%
19:00 +11°C° 0 mm 1 mps 751 mmHg 82%
20:00 +10°C° 0 mm 0 mps 751 mmHg 82%
21:00 +11°C° 0 mm 1 mps 752 mmHg 84%
22:00 +11°C° 0 mm 1 mps 752 mmHg 85%
23:00 +11°C° 0 mm 1 mps 752 mmHg 87%
Show more